METEOR 2-11 DEB, 40707

Orbit data source: Space-Track

METEOR 2-11 DEB, 40707 is space debris in LEO originally from a launch on Thu, 05 Jul 1984 UTC launched from the Plesetsk Missile And Space Complex (PKMTR). Debris objects in space refer to the collection of defunct objects orbiting the Earth. Examples of debris include non-operational satellites, rocket bodies, and fragments generated from explosions, collisions, or faulty payload assembly.

Loading next visibility...
Identifier
40707, 1984-072J
Orbit
LEO
Last TLE update
14 hours ago
Origin
Manufacturer
Unknown
Mission
Spacecraft
Bus & Motor
Unknown
Mass
Unknown
Launch date (UTC)
1984-07-05 (41 years ago)
Launch vehicle
Unknown
Launch site
Plesetsk Missile And Space Complex (PKMTR)
Object type
Payload
Rocket body
Debris
Shape & HBR
Unknown
Radar Cross Section
Small (<0.1 m²)

Expand to show TLE details & history

TLE from 14 hours ago
0 METEOR 2-11 DEB
1 40707U 84072J   25183.56577433  .00002373  00000-0  17118-2 0  9993
2 40707  82.5199 290.9666 0006541 282.0373  78.0061 13.96342820 55362
Epoch: 2025-07-02T13:34Z
TLE epoch observation values (Epoch: 2025-07-02T13:34:42.902Z)
Latitude
0.00003°
Longitude
166.4428°
Altitude
908.418 km
Speed
7.398 km/s
True Right ascension
19h 23m 51s
True Declination
0° 00' 00"
Sunlit
Object was in full shadow at epoch
Visualization orbit readout
Latitude
51.0277°
Longitude
175.25933°
Altitude
917.8 km
Speed
7.396 km/s
Apparent Right ascension
23h 50m 05s
Apparent Declination
16° 11' 33"
Sunlit
Object is in daylight
Visualization observer readout
Local Sidereal Time
15:20:08
Azimuth
52.305° ENE
Elevation
-15.622°
Doppler factor
1
Orbital elements
Apogee altitude
908.386 km
Perigee altitude
898.86 km
Semi-major axis
7,281.76 km
Eccentricity
0.00065
Inclination
82.5199°
RAAN
290.9666°
Arg. of periapsis
282.0373°
True anomaly
Unknown
Mean anomaly
78.0061°
Eccentric anomaly
Unknown
Mean motion
3.49292 °/min
Orbital period
103.07 mins
BSTAR
0.0017118
Loading maneuver chart data...
Loading SW <> Apogee altitude chart data...
Loading historical data...
Loading historical data...
Loading historical data...
Loading historical data...
Loading historical data...
Loading historical data...
Loading historical data...

METEOR 2-11 DEB Visibility forecast

Observer location: undefined°, undefined°

Span
Click to sort rows by Start time (UTC) header in descending order
Start Az.
Max El. time (UTC)
Max El. Az.
Max El.
End time (UTC)
End Az.
8 mins2025-07-03 06:53:56.429Z136.401° SSE2025-07-03 06:57:56.429Z87.509° E23.875°2025-07-03 07:01:56.429Z37.58° NE
9 mins2025-07-03 08:37:56.429Z223.309° SW2025-07-03 08:41:56.429Z290.166° WNW33.029°2025-07-03 08:46:56.429Z352.024° N
6 mins2025-07-03 17:41:56.429Z37.237° NE2025-07-03 17:44:56.429Z73.48° E17.951°2025-07-03 17:47:56.429Z107.282° ESE
9 mins2025-07-03 19:24:56.429Z339.896° N2025-07-03 19:28:56.429Z269.719° W40.585°2025-07-03 19:33:56.429Z191.042° SSW
|